Location: Piolenc
(44.1794°N, 4.7641°E)
Time: 03:44:33
(UTC+00:00)

SAR-Lupe-4 - Pass Details

Date: 27 January 2021
Orbit: 480 x 484 km, 98.2° (Epoch: 26 February)

Event Time Altitude Azimuth Distance (km) Brightness Sun altitude
Rises 05:41:12 0° 180° (S) 2,538 7.4 -14.9°
Reaches altitude 10° 05:43:19 10° 188° (S) 1,663 6.3 -14.5°
Maximum altitude 05:46:43 42° 260° (W) 704 3.9 -13.9°
Enters shadow 05:49:47 13° 331° (NNW) 1,524 5.7 -13.4°
